Location: Fours
(44.3167°N, 6.7000°E)
Time: 08:29:30
(UTC+00:00)

USA 238 - Pass Details

Date: 30 November 2020
Orbit: 996 x 1216 km, 63.4° (Epoch: 22 January)

Event Time Altitude Azimuth Distance (km) Brightness Sun altitude
Rises 17:45:10 0° 195° (SSW) 3,707 6.9 -19.0°
Reaches altitude 10° 17:47:47 10° 189° (S) 2,772 6.1 -19.5°
Maximum altitude 17:53:58 47° 117° (ESE) 1,330 3.8 -20.6°
Enters shadow 17:56:01 37° 73° (ENE) 1,572 4.0 -20.9°
